Regional Weather Roundup
Issued by NWS

Home | Current Version | Previous Version | Text Only | Print | Product List | Glossary On
Versions: 1 2 3 4 5 6 7 8 9 10 11 12 13 14 15 16 17 18 19 20 21 22 23 24 25 26 27 28 29 30 31 32 33 34 35 36 37 38 39 40 41 42 43 44 45 46 47 48 49 50
153
ASUS43 KMKX 241821
RWRWI

WISCONSIN REGIONAL WEATHER ROUNDUP
NATIONAL WEATHER SERVICE MILWAUKEE/SULLIVAN WI
100 PM CDT SUN SEP 24 2017

NOTE: "FAIR" INDICATES FEW OR NO CLOUDS BELOW 12,000 FEET WITH NO
SIGNIFICANT WEATHER AND/OR OBSTRUCTIONS TO VISIBILITY.

WIZ001-002-006>008-014>016-023>028-241900-
NORTHWEST WISCONSIN

CITY           SKY/WX    TMP DP  RH WIND       PRES   REMARKS
SUPERIOR ARPT  CLOUDY    67  64  90 NE7       29.92F
6HR MIN TEMP:  63; 6HR MAX TEMP:  69;

ASHLAND        MOSUNNY   87  66  49 S14G22    29.93F HX  89
6HR MIN TEMP:  59; 6HR MAX TEMP:  88;

HAYWARD        MOSUNNY   83  65  54 S15G22    29.97F HX  85
6HR MIN TEMP:  67; 6HR MAX TEMP:  84;

SIREN          CLOUDY    84  65  52 S9G17     29.93F HX  86
6HR MIN TEMP:  68; 6HR MAX TEMP:  84;

CUMBERLAND     SUNNY     81  64  57 S16       29.96F HX  82
RICE LAKE      MOSUNNY   85  61  44 S10G18    29.98F HX  86
6HR MIN TEMP:  65; 6HR MAX TEMP:  85;

CHETEK         SUNNY     85  64  49 S13       29.97F HX  86
6HR MIN TEMP:  65; 6HR MAX TEMP:  85;

LADYSMITH      SUNNY     85  62  44 S15G21    30.00F HX  85
6HR MIN TEMP:  67; 6HR MAX TEMP:  85;

EAU CLAIRE     SUNNY     87  60  40 S12       29.96F HX  87
6HR MIN TEMP:  65; 6HR MAX TEMP:  87;

MENOMONIE      SUNNY     86  61  43 S13G21    29.96F HX  86
6HR MIN TEMP:  65; 6HR MAX TEMP:  86;

NEW RICHMOND   SUNNY     86  64  46 S13G18    29.94F HX  87
6HR MIN TEMP:  68; 6HR MAX TEMP:  86;

OSCEOLA        MOSUNNY   86  65  48 S14       29.96S HX  87
6HR MIN TEMP:  68; 6HR MAX TEMP:  86;

$$

WIZ003>005-009-010-017-018-241900-
NORTH CENTRAL WISCONSIN

CITY           SKY/WX    TMP DP  RH WIND       PRES   REMARKS
MANITOWISH WTR NOT AVBL
ARBOR VITAE    SUNNY     83  64  51 S8G20     30.03F HX  85
6HR MIN TEMP:  69; 6HR MAX TEMP:  85;

WOODRUFF       SUNNY     83  64  51 S8G20     30.03F HX  85
6HR MIN TEMP:  69; 6HR MAX TEMP:  85;

RHINELANDER    MOSUNNY   84  63  49 S12       30.05F HX  85
6HR MIN TEMP:  61; 6HR MAX TEMP:  86;

EAGLE RIVER    MOSUNNY   85  58  38 S12G21    30.04F HX  84
6HR MIN TEMP:  60; 6HR MAX TEMP:  85;

LAND O LAKES   MOSUNNY   84  61  44 S10       30.05F HX  84
6HR MIN TEMP:  59; 6HR MAX TEMP:  85;

PHILLIPS       CLOUDY    85  61  44 S16G25    30.00F HX  85
6HR MIN TEMP:  67; 6HR MAX TEMP:  84;

TOMAHAWK       MOSUNNY   86  60  41 SW3       30.04F HX  85
6HR MIN TEMP:  58; 6HR MAX TEMP:  86;

MEDFORD        SUNNY     84  61  45 SW13G18   30.03F HX  85
6HR MIN TEMP:  62; 6HR MAX TEMP:  85;

MERRILL        SUNNY     87  63  45 SW8G18    30.04F HX  87
6HR MIN TEMP:  58; 6HR MAX TEMP:  87;

$$

WIZ029-030-035-036-043>047-241900-
CENTRAL WISCONSIN

CITY           SKY/WX    TMP DP  RH WIND       PRES   REMARKS
WAUSAU         MOSUNNY   84  62  47 SW13      30.02F HX  85
6HR MIN TEMP:  63; 6HR MAX TEMP:  86;

MOSINEE        MOSUNNY   84  63  48 S10       30.04F HX  85
MARSHFIELD     MOSUNNY   87  61  41 S10       30.02F HX  87
6HR MIN TEMP:  64; 6HR MAX TEMP:  87;

STEVENS POINT  SUNNY     86  63  45 S10G20    30.03F HX  86
6HR MIN TEMP:  60; 6HR MAX TEMP:  86;

WAUPACA        SUNNY     90  63  40 S12G18    30.03F HX  90
6HR MIN TEMP:  64; 6HR MAX TEMP:  90;

WAUTOMA        NOT AVBL
WISC RAPIDS    SUNNY     89  63  41 SW10      30.04F HX  90
6HR MIN TEMP:  67; 6HR MAX TEMP:  89;

CAMP DOUGLAS   MOSUNNY   88  63  42 S10       30.01F HX  88
$$

WIZ011>013-019>022-031-037>040-048>050-241900-
NORTHEAST WISCONSIN

CITY           SKY/WX    TMP DP  RH WIND       PRES   REMARKS
ANTIGO         MOSUNNY   83  63  49 S15       30.06F HX  84
6HR MIN TEMP:  66; 6HR MAX TEMP:  85;

SHAWANO        SUNNY     90  64  42 S5        30.03F HX  91
6HR MIN TEMP:  68; 6HR MAX TEMP:  90;

OCONTO         SUNNY     88  67  49 S8        30.03F HX  90
6HR MIN TEMP:  60; 6HR MAX TEMP:  88;

STURGEON BAY   SUNNY     87  70  56 S9        30.06F HX  92
6HR MIN TEMP:  69; 6HR MAX TEMP:  87;

GREEN BAY      MOSUNNY   87  67  51 S9        30.04F HX  90
6HR MIN TEMP:  64; 6HR MAX TEMP:  89;

MANITOWOC      SUNNY     81  70  69 SE8       30.07F HX  84
6HR MIN TEMP:  63; 6HR MAX TEMP:  81;

APPLETON       MOSUNNY   88  61  40 S10       30.04F HX  88
CLINTONVILLE   SUNNY     90  61  37 SW10      30.04F HX  89
OSHKOSH        SUNNY     87  66  49 S15G23    30.04F HX  89
6HR MIN TEMP:  67; 6HR MAX TEMP:  87;

$$

WIZ032>034-041-042-053>061-241900-
SOUTHWEST WISCONSIN

CITY           SKY/WX    TMP DP  RH WIND       PRES   REMARKS
LA CROSSE      SUNNY     91  62  37 S15       29.98F HX  91
6HR MIN TEMP:  68; 6HR MAX TEMP:  91;

SPARTA         SUNNY     87  60  39 S9G17     30.01F HX  87
6HR MIN TEMP:  57; 6HR MAX TEMP:  87;

VIROQUA        SUNNY     87  61  41 S12G17    30.03F HX  87
6HR MIN TEMP:  66; 6HR MAX TEMP:  87;

BOSCOBEL       SUNNY     91  60  35 S7G18     30.01F HX  90
6HR MIN TEMP:  60; 6HR MAX TEMP:  92;

PRAIRIE DU CHI SUNNY     89  56  32 S10G16    29.99F HX  87
6HR MIN TEMP:  64; 6HR MAX TEMP:  89;

PLATTEVILLE    SUNNY     87  63  44 S10G20    30.05F HX  88
6HR MIN TEMP:  66; 6HR MAX TEMP:  87;

$$

WIZ056-057-062-063-064-067-068-241900-
SOUTH CENTRAL WISCONSIN

CITY           SKY/WX    TMP DP  RH WIND       PRES   REMARKS
REEDSBURG      SUNNY     87  64  45 S7        30.03F HX  89
6HR MIN TEMP:  61; 6HR MAX TEMP:  87;

BARABOO/DELLS  SUNNY     86  59  39 SW12      30.04F HX  86
LONE ROCK      SUNNY     89  63  41 S14G23    30.01F HX  90
6HR MIN TEMP:  60; 6HR MAX TEMP:  89;

MINERAL POINT  SUNNY     88  61  40 S13       30.05F HX  88
MADISON        SUNNY     87  62  43 S14       30.04F HX  87
6HR MIN TEMP:  65; 6HR MAX TEMP:  88;

MIDDLETON      SUNNY     89  57  33 S12G17    30.05F HX  87
6HR MIN TEMP:  62; 6HR MAX TEMP:  89;

WATERTOWN      SUNNY     88  62  42 S10G18    30.05F HX  88
6HR MIN TEMP:  63; 6HR MAX TEMP:  88;

MONROE         SUNNY     86  55  35 S12       30.05F HX  84
JANESVILLE     SUNNY     90  59  35 S12G18    30.05F HX  89
$$

WIZ051-052-058>065-066-070>072-241900-
SOUTHEAST WISCONSIN

CITY           SKY/WX    TMP DP  RH WIND       PRES   REMARKS
MILWAUKEE      MOSUNNY   91  64  40 SE10G16   30.06F HX  92
6HR MIN TEMP:  68; 6HR MAX TEMP:  91;

WAUKESHA       MOSUNNY   88  59  37 SW10G18   30.09F HX  87
MILWAUKEE/TIMM MOSUNNY   90  54  29 SW13      30.07F HX  87
RACINE         SUNNY     87  66  49 SE10      30.09S HX  89
6HR MIN TEMP:  69; 6HR MAX TEMP:  89;

BURLINGTON     SUNNY     90  62  39 S9G18     30.06F HX  90
6HR MIN TEMP:  58; 6HR MAX TEMP:  91;

KENOSHA        MOSUNNY   91  62  37 SW10      30.07F HX  91
6HR MIN TEMP:  64; 6HR MAX TEMP:  91;

FOND DU LAC    SUNNY     87  62  43 S14G21    30.05F HX  87
6HR MIN TEMP:  64; 6HR MAX TEMP:  87;

SHEBOYGAN      SUNNY     88  68  51 S9        30.06F HX  91
6HR MIN TEMP:  64; 6HR MAX TEMP:  89;

WEST BEND        N/A     88  59  37 S7        30.07F HX  87
JUNEAU         SUNNY     85  63  47 S12       30.07F HX  86
6HR MIN TEMP:  66; 6HR MAX TEMP:  85;

$$

LSZ147-162-241900-
LAKE SUPERIOR

STATION/POSITION TIME  TEMP    WIND        PRES    WAVE
                       AIR SEA DIR/SP/G            HT/PER
                 (UTC) (F)     (DEG/KT/KT) (MB)    (FT/S)
W MID LAKE BUOY  1750   65 57  110/  6/  6 1013.5F   1
DEVILS ISLAND    1800   68      70/  6/  6 1013.2F
SAXON HARBOR     1730   87     200/ 10/ 14 1013.2F
$$

LMZ867-665-643>646-241900-
LAKE MICHIGAN

STATION/POSITION TIME  TEMP    WIND        PRES    WAVE
                       AIR SEA DIR/SP/G            HT/PER
                 (UTC) (F)     (DEG/KT/KT) (MB)    (FT/S)
S GREEN BAY BUOY 1800   80 69   CALM  /  2 1017.2
N MID LAKE BUOY  1750   69 67  180/ 10/ 10 1018.6F   1/ 3
NORTHPORT PIER   1740   76     150/  8/  9 1017.6F
KEWAUNEE LAKESHO 1754



USA.gov is the U.S. government's official web portal to all federal, state and local government web resources and services.